Yankton, SD

1:50 AM CDT on August 20, 2017 (GMT -0500)
Gurney Municipal

Weather History for KYKN - February, 2015

Change the Weather History Date:

Tuesday, February 24, 2015

  Actual Average Record
Temperature  
Mean Temperature 35 °F -  
Max Temperature 44 °F 37 °F 69 °F (1958)
Min Temperature 26 °F 15 °F -21 °F (1965)
Degree Days  
Heating Degree Days 30    
Moisture  
Dew Point 19 °F    
Average Humidity 52    
Maximum Humidity 64    
Minimum Humidity 39    
Precipitation  
Precipitation 0.00 in - - ()
Sea Level Pressure  
Sea Level Pressure 29.91 in    
Wind  
Wind Speed 17 mph (NW)    
Max Wind Speed 26 mph    
Max Gust Speed 32 mph    
Visibility 10 miles    
Events      
Averages and records for this station are not official NWS values.
T = Trace of Precipitation, MM = Missing Value Source: NWS Daily Summary

Daily Weather History Graph

Daily Weather History Graph

Search for Another Location

Airport or City:

Trip Planner

Search our weather history database for the weather conditions in past years. The results will help you decide how hot, cold, wet, or windy it might be!

Date:

Astronomy

Feb. 24, 2015 Rise Set
Actual Time 7:13 AM CST 6:12 PM CST
Civil Twilight 6:45 AM CST 6:41 PM CST
Nautical Twilight 6:12 AM CST 7:13 PM CST
Astronomical Twilight 5:39 AM CST 7:46 PM CST
Moon 10:40 AM CST (2/24) 12:09 AM CST (2/24)
Length of Visible Light 11h 55m
Length of Day
10h 58m
Waxing Crescent, 40% of the Moon is Illuminated
Feb 24
Waxing Crescent
Feb 25
First Quarter
Mar 5
Full
Mar 13
Last Quarter
Mar 20
New

Hourly Weather History & Observations

Time (CST) Temp. Windchill Dew Point Humidity Pressure Visibility Wind Dir Wind Speed Gust Speed Precip Events Conditions
12:15 AM 26.6 °F 12.7 °F 10.4 °F 51% 29.95 in 10.0 mi SW 20.7 mph 27.6 mph N/A   Overcast
12:35 AM 28.4 °F 14.4 °F 10.4 °F 47% 29.95 in 10.0 mi SW 23.0 mph 29.9 mph N/A   Overcast
12:55 AM 28.4 °F 16.6 °F 12.2 °F 51% 29.94 in 10.0 mi WSW 16.1 mph 25.3 mph N/A   Overcast
1:15 AM 28.4 °F 16.2 °F 12.2 °F 51% 29.93 in 10.0 mi WSW 17.3 mph 26.5 mph N/A   Partly Cloudy
1:35 AM 28.4 °F 15.8 °F 12.2 °F 51% 29.92 in 10.0 mi WSW 18.4 mph 27.6 mph N/A   Clear
1:55 AM 28.4 °F 15.8 °F 12.2 °F 51% 29.91 in 10.0 mi WSW 18.4 mph - N/A   Mostly Cloudy
2:15 AM 30.2 °F 17.8 °F 12.2 °F 47% 29.91 in 10.0 mi WSW 19.6 mph 25.3 mph N/A   Overcast
2:35 AM 30.2 °F 18.5 °F 12.2 °F 47% 29.90 in 10.0 mi WSW 17.3 mph 24.2 mph N/A   Scattered Clouds
2:55 AM 30.2 °F 18.1 °F 12.2 °F 47% 29.89 in 10.0 mi WSW 18.4 mph 24.2 mph N/A   Clear
3:15 AM 30.2 °F 18.5 °F 12.2 °F 47% 29.88 in 10.0 mi WSW 17.3 mph - N/A   Clear
3:35 AM 30.2 °F 18.9 °F 12.2 °F 47% 29.88 in 10.0 mi West 16.1 mph - N/A   Clear
3:55 AM 30.2 °F 18.9 °F 12.2 °F 47% 29.88 in 10.0 mi West 16.1 mph - N/A   Clear
4:15 AM 30.2 °F 18.9 °F 12.2 °F 47% 29.89 in 10.0 mi West 16.1 mph 21.9 mph N/A   Clear
4:35 AM 28.4 °F 17.5 °F 12.2 °F 51% 29.89 in 10.0 mi West 13.8 mph - N/A   Clear
4:55 AM 26.6 °F 15.2 °F 12.2 °F 55% 29.89 in 10.0 mi West 13.8 mph - N/A   Clear
5:15 AM 28.4 °F 17.0 °F 12.2 °F 51% 29.89 in 10.0 mi WNW 15.0 mph - N/A   Clear
5:35 AM 26.6 °F 15.7 °F 12.2 °F 55% 29.90 in 10.0 mi West 12.7 mph - N/A   Clear
5:55 AM 26.6 °F 14.7 °F 15.8 °F 64% 29.91 in 10.0 mi WNW 15.0 mph - N/A   Clear
6:15 AM 30.2 °F 19.3 °F 17.6 °F 60% 29.91 in 10.0 mi WNW 15.0 mph - N/A   Mostly Cloudy
6:35 AM 32.0 °F 21.2 °F 19.4 °F 60% 29.91 in 10.0 mi WNW 16.1 mph 23.0 mph N/A   Overcast
6:55 AM 33.8 °F 22.8 °F 21.2 °F 60% 29.92 in 10.0 mi NW 18.4 mph 24.2 mph N/A   Overcast
7:15 AM 33.8 °F 23.2 °F 21.2 °F 60% 29.92 in 10.0 mi WNW 17.3 mph - N/A   Overcast
7:35 AM 33.8 °F 23.2 °F 21.2 °F 60% 29.93 in 10.0 mi WNW 17.3 mph - N/A   Overcast
7:55 AM 33.8 °F 22.2 °F 21.2 °F 60% 29.94 in 10.0 mi WNW 20.7 mph 26.5 mph N/A   Overcast
8:15 AM 33.8 °F 22.2 °F 21.2 °F 60% 29.95 in 10.0 mi NW 20.7 mph 29.9 mph N/A   Overcast
8:35 AM 33.8 °F 23.2 °F 21.2 °F 60% 29.96 in 10.0 mi WNW 17.3 mph - N/A   Overcast
8:55 AM 35.6 °F 25.5 °F 21.2 °F 56% 29.97 in 10.0 mi NW 17.3 mph 24.2 mph N/A   Overcast
9:15 AM 35.6 °F 25.5 °F 23.0 °F 60% 29.97 in 10.0 mi WNW 17.3 mph - N/A   Overcast
9:35 AM 35.6 °F 24.8 °F 23.0 °F 60% 29.97 in 10.0 mi NW 19.6 mph - N/A   Overcast
9:55 AM 35.6 °F 23.2 °F 21.2 °F 56% 29.97 in 10.0 mi NW 26.5 mph 31.1 mph N/A   Overcast
10:15 AM - - - N/A% 29.96 in 10.0 mi NW 24.2 mph 31.1 mph N/A   Mostly Cloudy
10:35 AM - - - N/A% 29.96 in 10.0 mi WNW 24.2 mph 29.9 mph N/A   Scattered Clouds
10:55 AM 39.2 °F 29.0 °F 23.0 °F 52% 29.96 in 10.0 mi NW 21.9 mph 31.1 mph N/A   Scattered Clouds
11:15 AM 39.2 °F 29.6 °F 23.0 °F 52% 29.97 in 10.0 mi WNW 19.6 mph - N/A   Mostly Cloudy
11:35 AM 39.2 °F 29.6 °F 23.0 °F 52% 29.97 in 10.0 mi NW 19.6 mph - N/A   Overcast
11:55 AM 39.2 °F 31.2 °F 23.0 °F 52% 29.97 in 10.0 mi NW 13.8 mph 20.7 mph N/A   Overcast
12:15 PM 41.0 °F 32.8 °F 24.8 °F 53% 29.96 in 10.0 mi NW 16.1 mph 24.2 mph N/A   Mostly Cloudy
12:35 PM 42.8 °F 34.0 °F 21.2 °F 42% 29.95 in 10.0 mi NW 20.7 mph 26.5 mph N/A   Scattered Clouds
12:55 PM 42.8 °F 33.8 °F 21.2 °F 42% 29.94 in 10.0 mi NW 21.9 mph 26.5 mph N/A   Clear
1:15 PM 42.8 °F 34.0 °F 21.2 °F 42% 29.94 in 10.0 mi NNW 20.7 mph 25.3 mph N/A   Clear
1:35 PM 44.6 °F 36.4 °F 21.2 °F 39% 29.93 in 10.0 mi NW 20.7 mph 31.1 mph N/A   Partly Cloudy
1:55 PM 44.6 °F 36.4 °F 21.2 °F 39% 29.93 in 10.0 mi NW 20.7 mph 32.2 mph N/A   Partly Cloudy
2:15 PM 44.6 °F 36.6 °F 21.2 °F 39% 29.92 in 10.0 mi NW 19.6 mph 28.8 mph N/A   Clear
2:35 PM 44.6 °F 37.2 °F 21.2 °F 39% 29.91 in 10.0 mi NW 17.3 mph 21.9 mph N/A   Clear
2:55 PM 44.6 °F 36.6 °F 21.2 °F 39% 29.91 in 10.0 mi WNW 19.6 mph 24.2 mph N/A   Clear
3:15 PM 44.6 °F 36.6 °F 21.2 °F 39% 29.91 in 10.0 mi NW 19.6 mph 24.2 mph N/A   Clear
3:35 PM 44.6 °F 36.6 °F 21.2 °F 39% 29.90 in 10.0 mi NW 19.6 mph - N/A   Clear
3:55 PM 44.6 °F 37.8 °F 21.2 °F 39% 29.89 in 10.0 mi NW 15.0 mph - N/A   Clear
4:15 PM 44.6 °F 38.4 °F 21.2 °F 39% 29.89 in 10.0 mi NW 12.7 mph - N/A   Clear
4:35 PM 44.6 °F 38.1 °F 21.2 °F 39% 29.89 in 10.0 mi NW 13.8 mph 18.4 mph N/A   Clear
4:55 PM 44.6 °F 39.7 °F 21.2 °F 39% 29.89 in 10.0 mi NW 9.2 mph - N/A   Partly Cloudy
5:15 PM 44.6 °F 38.8 °F 21.2 °F 39% 29.89 in 10.0 mi NNW 11.5 mph - N/A   Clear
5:35 PM 42.8 °F 38.6 °F 21.2 °F 42% 29.88 in 10.0 mi NNW 6.9 mph - N/A   Clear
5:55 PM 39.2 °F 34.2 °F 21.2 °F 49% 29.89 in 10.0 mi North 6.9 mph - N/A   Clear
6:15 PM 39.2 °F 33.6 °F 21.2 °F 49% 29.89 in 10.0 mi North 8.1 mph - N/A   Scattered Clouds
6:35 PM 37.4 °F 31.4 °F 21.2 °F 52% 29.89 in 10.0 mi North 8.1 mph - N/A   Mostly Cloudy
6:55 PM 35.6 °F 29.2 °F 21.2 °F 56% 29.89 in 10.0 mi NNE 8.1 mph - N/A   Scattered Clouds
7:15 PM 35.6 °F 29.2 °F 19.4 °F 52% 29.88 in 10.0 mi NE 8.1 mph - N/A   Scattered Clouds
7:35 PM 35.6 °F 29.2 °F 21.2 °F 56% 29.89 in 10.0 mi NE 8.1 mph - N/A   Mostly Cloudy
7:55 PM 35.6 °F 29.9 °F 21.2 °F 56% 29.89 in 10.0 mi East 6.9 mph - N/A   Mostly Cloudy
8:15 PM 33.8 °F 29.6 °F 21.2 °F 60% 29.87 in 10.0 mi East 4.6 mph - N/A   Scattered Clouds
8:35 PM 33.8 °F 28.6 °F 21.2 °F 60% 29.87 in 10.0 mi ENE 5.8 mph - N/A   Mostly Cloudy
8:55 PM 33.8 °F 28.6 °F 21.2 °F 60% 29.86 in 10.0 mi East 5.8 mph - N/A   Scattered Clouds
9:15 PM 33.8 °F - 21.2 °F 60% 29.86 in 10.0 mi Calm Calm - N/A   Mostly Cloudy
9:35 PM 33.8 °F 29.6 °F 21.2 °F 60% 29.87 in 10.0 mi ENE 4.6 mph - N/A   Overcast
9:55 PM 33.8 °F 29.6 °F 21.2 °F 60% 29.86 in 10.0 mi East 4.6 mph - N/A   Overcast
10:15 PM 33.8 °F 27.7 °F 21.2 °F 60% 29.86 in 10.0 mi East 6.9 mph - N/A   Mostly Cloudy
10:35 PM 33.8 °F 27.0 °F 21.2 °F 60% 29.85 in 10.0 mi East 8.1 mph - N/A   Scattered Clouds
10:55 PM 33.8 °F 28.6 °F 21.2 °F 60% 29.85 in 10.0 mi East 5.8 mph - N/A   Mostly Cloudy
11:15 PM 32.0 °F 24.2 °F 19.4 °F 60% 29.84 in 10.0 mi ESE 9.2 mph - N/A   Mostly Cloudy
11:35 PM 32.0 °F 23.6 °F 19.4 °F 60% 29.84 in 10.0 mi ESE 10.4 mph - N/A   Mostly Cloudy
11:55 PM 32.0 °F 23.6 °F 19.4 °F 60% 29.83 in 10.0 mi ESE 10.4 mph - N/A   Mostly Cloudy